Location: Lane
(33.5226°N, 79.8788°W)
Time: 19:37:56
(UTC+00:00)

Transit 2A - Pass Details

Date: 29 September 2022
Orbit: 598 x 959 km, 66.7° (Epoch: 03 December)

Event Time Altitude Azimuth Distance (km) Brightness Sun altitude
Rises 04:23:56 0° 196° (SSW) 3,015 - -57.1°
Reaches altitude 10° 04:26:20 10° 192° (SSW) 2,057 - -57.2°
Maximum altitude 04:30:51 58° 113° (ESE) 727 - -57.6°
Drops below altitude 10° 04:35:07 10° 35° (NE) 1,952 - -57.8°
Sets 04:37:21 0° 31° (NNE) 2,847 - -58.0°
